Location: State Line Observation Field
(36.5320°N, 77.5360°W)
Time: 22:42:05
(UTC-05:00)

LightSail 2 - Pass Details

Date: 14 November 2019
Orbit: 696 x 730 km, 24.0° (Epoch: 06 December)

Event Time Altitude Azimuth Distance (km) Brightness Sun altitude
Exits shadow 04:05:17 18° 155° (SSE) 1,739 7.3 -32.4°
Drops below altitude 10° 04:07:37 10° 130° (SE) 2,212 8.2 -31.9°
Sets 04:10:40 0° 114° (ESE) 3,136 9.4 -31.3°
